Date,TemperatureHighF,TemperatureAvgF,TemperatureLowF,DewpointHighF,DewpointAvgF,DewpointLowF,HumidityHigh,HumidityAvg,HumidityLow,PressureMaxIn,PressureMinIn,WindSpeedMaxMPH,WindSpeedAvgMPH,GustSpeedMaxMPH,PrecipitationSumIn
2013-1-1,30.9,18.3,3.7,8.8,1.5,-8.8,61,48,36,23.45,23.39,5,0,6,0.04
2013-1-2,33.4,23.2,14.7,5.4,0.2,-3.1,48,37,28,23.48,23.39,6,1,6,0.00
2013-1-3,28.0,22.5,17.6,1.4,-3.1,-8.1,38,32,25,23.51,23.39,5,2,11,0.00
2013-1-4,35.2,20.2,6.4,5.2,-1.8,-10.8,46,38,22,23.54,23.45,0,0,4,0.00
2013-1-5,44.8,21.2,5.7,8.0,-1.6,-11.0,51,39,15,23.59,23.51,0,0,4,0.04
2013-1-6,41.5,24.9,12.0,9.3,3.3,-1.8,54,41,18,23.54,23.27,6,0,8,0.00
2013-1-7,37.4,25.8,13.8,9.8,5.0,-1.0,54,41,30,23.36,23.24,4,0,5,0.00
2013-1-8,44.8,28.4,10.9,13.8,4.4,-3.6,52,38,17,23.51,23.30,4,0,8,0.00
2013-1-9,44.4,34.1,24.6,16.0,13.1,9.9,58,42,29,23.62,23.39,4,0,6,0.00
2013-1-10,40.5,31.8,23.4,23.8,12.9,9.5,78,47,31,23.39,23.03,6,2,9,0.00
2013-1-11,25.5,18.4,8.6,12.1,-4.4,-15.5,63,38,19,23.21,23.03,5,2,8,0.00
2013-1-12,24.1,11.1,-2.6,-1.9,-12.7,-25.0,43,33,22,23.24,23.15,4,0,9,0.00
2013-1-13,24.8,11.6,-1.5,-1.6,-12.5,-22.6,39,32,24,23.24,23.15,4,0,6,0.00
2013-1-14,21.2,8.5,-1.3,-2.1,-13.6,-22.2,42,35,34,23.36,23.18,5,0,6,0.00
2013-1-15,27.0,12.1,-4.7,0.4,-10.1,-25.3,47,36,27,23.56,23.36,5,1,8,0.00
2013-1-16,36.5,22.4,7.3,9.5,1.0,-8.6,47,40,30,23.62,23.54,4,0,5,0.00
2013-1-17,37.0,27.3,17.6,9.8,5.2,1.7,53,39,31,23.65,23.56,4,0,8,0.00
2013-1-18,40.5,25.1,10.8,12.2,5.6,-2.6,55,44,30,23.62,23.54,2,0,4,0.00
2013-1-19,41.5,25.5,10.2,12.8,6.5,-2.3,59,46,28,23.65,23.56,4,0,6,0.00
2013-1-20,44.8,24.9,8.4,13.5,5.8,-4.4,57,46,27,23.59,23.51,2,0,3,0.00
2013-1-21,45.0,27.8,14.0,8.3,3.2,-4.5,57,38,15,23.59,23.51,4,0,6,0.00
2013-1-22,49.3,30.0,14.0,15.1,7.0,0.6,56,41,16,23.62,23.56,3,0,4,0.00
2013-1-23,48.7,32.9,19.0,21.5,13.6,6.7,59,47,24,23.65,23.56,4,0,3,0.00
2013-1-24,45.9,37.2,32.9,33.8,27.2,20.4,87,68,39,23.59,23.54,4,0,5,0.00
2013-1-25,47.8,39.7,36.1,42.8,33.2,28.1,91,78,49,23.59,23.48,0,0,0,0.31
2013-1-26,40.5,38.5,36.7,39.2,36.4,33.8,93,91,87,23.45,23.24,3,0,4,0.98
2013-1-27,42.8,37.8,34.0,37.4,33.6,25.7,93,84,69,23.33,23.24,4,1,6,0.00
2013-1-28,34.7,29.6,20.3,29.1,17.0,6.7,84,60,39,23.24,23.12,4,0,5,0.00
2013-1-29,30.7,22.7,12.9,14.5,6.1,-1.4,62,49,40,23.42,23.18,5,1,6,0.00
2013-1-30,43.0,28.4,12.6,17.0,9.4,-0.5,59,45,30,23.54,23.39,4,0,6,0.12
2013-1-31,45.1,31.3,19.0,19.1,15.2,8.9,71,53,30,23.56,23.51,5,0,6,0.04